Location: Champs
(48.8539°N, 2.6040°E)
Time: 13:39:01
(UTC+00:00)

Cosmos 1538 Rocket - Pass Details

Date: 26 October 2021
Orbit: 752 x 792 km, 74.0° (Epoch: 06 December)

Event Time Altitude Azimuth Distance (km) Brightness Sun altitude
Exits shadow 04:11:21 35° 205° (SSW) 1,245 4.8 -22.9°
Maximum altitude 04:13:40 87° 292° (WNW) 796 3.9 -22.5°
Drops below altitude 10° 04:19:05 10° 23° (NNE) 2,366 6.9 -21.6°
Sets 04:21:30 0° 24° (NNE) 3,302 7.7 -21.2°
